This is the latest recevied weather packets stored in our database for station/object N8QQQ. If no packets are shown the sender has not sent any weather packets the latest 10 day(s).
| Time | Temp. | Humidity | Pressure | Rain* | Wind** | Luminosity | Snow |
|---|---|---|---|---|---|---|---|
| 1778076656 | 2.22° C | 64% | 1011.5 hPa | 0 mm | - | 118 W/m² | - |
| 1778076353 | 1.67° C | 64% | 1011.6 hPa | 0 mm | - | 122 W/m² | - |
| 1778076050 | 1.67° C | 65% | 1011.5 hPa | 0 mm | - | 125 W/m² | - |
| 1778075747 | 1.67° C | 66% | 1011.6 hPa | 0 mm | - | 113 W/m² | - |
| 1778075443 | 1.67° C | 65% | 1011.7 hPa | 0 mm | - | 132 W/m² | - |
| 1778075140 | 1.11° C | 66% | 1011.5 hPa | 0 mm | - | 121 W/m² | - |
| 1778074835 | 1.11° C | 66% | 1011.9 hPa | 0 mm | - | 79 W/m² | - |
| 1778074533 | 1.11° C | 67% | 1011.6 hPa | 0 mm | - | 52 W/m² | - |
| 1778074230 | 1.11° C | 66% | 1011.6 hPa | 0 mm | - | 59 W/m² | - |
| 1778073927 | 1.11° C | 66% | 1011.8 hPa | 0 mm | - | 62 W/m² | - |
| 1778073624 | 1.11° C | 68% | 1011.6 hPa | 0 mm | - | 67 W/m² | - |
| 1778073321 | 1.11° C | 67% | 1011.5 hPa | 0 mm | - | 66 W/m² | - |
| 1778073018 | 1.11° C | 68% | 1011.4 hPa | 0 mm | - | 57 W/m² | - |
| 1778072715 | 0.56° C | 68% | 1011.3 hPa | 0 mm | - | 56 W/m² | - |
| 1778072412 | 1.11° C | 67% | 1011.4 hPa | 0 mm | - | 53 W/m² | - |
| 1778072110 | 0.56° C | 69% | 1011.4 hPa | 0 mm | - | 50 W/m² | - |
| 1778071808 | 0.56° C | 69% | 1011.3 hPa | 0 mm | - | 46 W/m² | - |
| 1778071505 | 0.56° C | 69% | 1011.3 hPa | 0 mm | - | 41 W/m² | - |
| 1778071203 | 0.56° C | 70% | 1011.1 hPa | 0 mm | - | 38 W/m² | - |
| 1778070901 | 0.56° C | 70% | 1011.2 hPa | 0 mm | - | 37 W/m² | - |
| 1778070598 | 0.56° C | 71% | 1011.2 hPa | 0 mm | - | 36 W/m² | - |
| 1778070295 | 0.56° C | 71% | 1011 hPa | 0 mm | - | 32 W/m² | - |
| 1778069993 | 0.56° C | 72% | 1011.1 hPa | 0 mm | - | 29 W/m² | - |
| 1778069690 | 0.56° C | 73% | 1011.1 hPa | 0 mm | - | 27 W/m² | - |
| 1778069387 | 0.56° C | 73% | 1011.1 hPa | 0 mm | - | 29 W/m² | - |
* Rain latest hour (hover to see other rain measurements)
** Current wind speed in m/s (hover to see current wind gust speed)